| time (UTC) | temp F | wind direction | speed MPH | gust MPH | rain 1hr in | rain 24hr in | rain mn in | humidity % | barometer mb |
| 20260906203010 | 71 | 169 | 6.0 | 7.0 | 0.00 | 0.00 | 0.00 | 83 | 4106.6 |
| 20260906202506 | 71 | 168 | 7.0 | 8.0 | 0.00 | 0.00 | 0.00 | 84 | 4106.6 |
| 20260906202001 | 71 | 171 | 8.0 | 8.0 | 0.00 | 0.00 | 0.00 | 84 | 4106.2 |
| 20260906201455 | 71 | 174 | 7.0 | 8.0 | 0.00 | 0.00 | 0.00 | 83 | 4106.6 |
| 20260906200950 | 71 | 162 | 4.0 | 5.0 | 0.00 | 0.00 | 0.00 | 82 | 4106.6 |
| 20260906200446 | 71 | 169 | 5.0 | 6.0 | 0.00 | 0.00 | 0.00 | 84 | 4106.6 |
| 20260906195941 | 71 | 210 | 3.0 | 3.0 | 0.00 | 0.00 | 0.00 | 76 | 4106.6 |
| 20260906195437 | 72 | 159 | 6.0 | 7.0 | 0.00 | 0.00 | 0.00 | 82 | 4106.6 |
| 20260906194933 | 72 | 175 | 5.0 | 7.0 | 0.00 | 0.00 | 0.00 | 76 | 4106.6 |
| 20260906194429 | 73 | 171 | 3.0 | 3.0 | 0.00 | 0.00 | 0.00 | 70 | 4106.2 |
| 20260906193924 | 75 | 159 | 5.0 | 6.0 | 0.00 | 0.00 | 0.00 | 72 | 4106.9 |
| 20260906193419 | 75 | 135 | 3.0 | 6.0 | 0.00 | 0.00 | 0.00 | 70 | 4106.6 |
| 20260906192915 | 74 | 142 | 2.0 | 3.0 | 0.00 | 0.00 | 0.00 | 72 | 4106.6 |
| 20260906192414 | 74 | 155 | 4.0 | 6.0 | 0.00 | 0.00 | 0.00 | 71 | 4106.6 |
| 20260906191913 | 74 | 147 | 2.0 | 2.0 | 0.00 | 0.00 | 0.00 | 71 | 4106.9 |
| 20260906191408 | 73 | 158 | 1.0 | 2.0 | 0.00 | 0.00 | 0.00 | 71 | 4106.6 |
| 20260906190902 | 70 | 180 | 1.0 | 1.0 | 0.00 | 0.00 | 0.00 | 83 | 4106.6 |
| 20260906190401 | 69 | 222 | 8.0 | 9.0 | 0.00 | 0.00 | 0.00 | 94 | 4106.9 |
| 20260906185856 | 70 | 201 | 4.0 | 6.0 | 0.00 | 0.00 | 0.00 | 89 | 4106.9 |
| 20260906185355 | 70 | 189 | 5.0 | 6.0 | 0.00 | 0.00 | 0.00 | 84 | 4106.9 |
| 20260906184855 | 71 | 172 | 8.0 | 9.0 | 0.00 | 0.00 | 0.00 | 87 | 4106.9 |
| 20260906184350 | 71 | 176 | 7.0 | 8.0 | 0.00 | 0.00 | 0.00 | 82 | 4106.9 |
| 20260906183845 | 71 | 204 | 1.0 | 2.0 | 0.00 | 0.00 | 0.00 | 83 | 4106.9 |
| 20260906183341 | 70 | 200 | 5.0 | 6.0 | 0.00 | 0.00 | 0.00 | 92 | 4106.9 |
| 20260906182836 | 70 | 181 | 3.0 | 3.0 | 0.00 | 0.00 | 0.00 | 90 | 4106.9 |
| 20260906182331 | 70 | 182 | 2.0 | 2.0 | 0.00 | 0.00 | 0.00 | 89 | 4106.9 |
| 20260906181826 | 70 | 166 | 2.0 | 2.0 | 0.00 | 0.00 | 0.00 | 90 | 4107.2 |
| 20260906181323 | 70 | 171 | 3.0 | 3.0 | 0.00 | 0.00 | 0.00 | 94 | 4106.9 |
| 20260906180818 | 69 | 171 | 3.0 | 3.0 | 0.00 | 0.00 | 0.00 | 94 | 4107.2 |
| 20260906180312 | 70 | 165 | 3.0 | 3.0 | 0.00 | 0.00 | 0.00 | 96 | 4107.2 |
| 20260906175809 | 69 | 169 | 3.0 | 3.0 | 0.00 | 0.00 | 0.00 | 92 | 4107.2 |
| 20260906175307 | 69 | 176 | 1.0 | 2.0 | 0.00 | 0.00 | 0.00 | 95 | 4107.6 |
| 20260906174804 | 69 | 168 | 2.0 | 2.0 | 0.00 | 0.00 | 0.00 | 96 | 4107.2 |
| 20260906174304 | 68 | 167 | 3.0 | 3.0 | 0.00 | 0.00 | 0.00 | 99 | 4107.6 |
| 20260906173759 | 69 | 173 | 6.0 | 7.0 | 0.00 | 0.00 | 0.00 | 96 | 4107.6 |
| 20260906173255 | 69 | 167 | 4.0 | 5.0 | 0.00 | 0.00 | 0.00 | 95 | 4107.6 |
| 20260906172753 | 69 | 169 | 4.0 | 6.0 | 0.00 | 0.00 | 0.00 | 96 | 4107.6 |
| 20260906172250 | 68 | 167 | 3.0 | 5.0 | 0.00 | 0.00 | 0.00 | 97 | 4107.6 |
| 20260906171744 | 68 | 176 | 5.0 | 6.0 | 0.00 | 0.00 | 0.00 | 97 | 4107.6 |
| 20260906171239 | 68 | 166 | 3.0 | 3.0 | 0.00 | 0.00 | 0.00 | 97 | 4107.9 |
| 20260906170735 | 68 | 169 | 4.0 | 5.0 | 0.00 | 0.00 | 0.00 | 98 | 4107.9 |
| 20260906170230 | 68 | 171 | 4.0 | 5.0 | 0.00 | 0.00 | 0.00 | 99 | 4107.6 |
| 20260906165727 | 68 | 173 | 5.0 | 6.0 | 0.00 | 0.00 | 0.00 | 97 | 4107.6 |
| 20260906165221 | 68 | 171 | 3.0 | 3.0 | 0.00 | 0.00 | 0.00 | 97 | 4107.6 |
| 20260906164721 | 68 | 171 | 1.0 | 2.0 | 0.00 | 0.00 | 0.00 | 98 | 4107.9 |
| 20260906164216 | 68 | 171 | 4.0 | 5.0 | 0.00 | 0.00 | 0.00 | 98 | 4108.3 |
| 20260906163712 | 68 | 169 | 2.0 | 2.0 | 0.00 | 0.00 | 0.00 | 98 | 4107.9 |
| 20260906163208 | 69 | 172 | 4.0 | 5.0 | 0.00 | 0.00 | 0.00 | 96 | 4107.9 |
| 20260906162704 | 69 | 171 | 3.0 | 3.0 | 0.00 | 0.00 | 0.00 | 95 | 4107.9 |
| 20260906162204 | 69 | 172 | 1.0 | 1.0 | 0.00 | 0.00 | 0.00 | 96 | 4107.9 |
| 20260906161659 | 69 | 172 | 1.0 | 2.0 | 0.00 | 0.00 | 0.00 | 94 | 4108.3 |
| 20260906161158 | 70 | 171 | 2.0 | 2.0 | 0.00 | 0.00 | 0.00 | 93 | 4107.9 |
| 20260906160657 | 69 | 172 | 2.0 | 2.0 | 0.00 | 0.00 | 0.00 | 96 | 4107.9 |
| 20260906160156 | 69 | 171 | 3.0 | 3.0 | 0.00 | 0.00 | 0.00 | 95 | 4107.9 |
| 20260906155654 | 69 | 171 | 3.0 | 3.0 | 0.00 | 0.00 | 0.00 | 93 | 4107.9 |
| 20260906155149 | 69 | 171 | 1.0 | 1.0 | 0.00 | 0.00 | 0.00 | 92 | 4107.9 |
| 20260906154644 | 69 | 171 | 3.0 | 3.0 | 0.00 | 0.00 | 0.00 | 94 | 4108.3 |
| 20260906154139 | 69 | 171 | 2.0 | 2.0 | 0.00 | 0.00 | 0.00 | 94 | 4107.9 |
| 20260906153638 | 69 | 171 | 3.0 | 3.0 | 0.00 | 0.00 | 0.00 | 94 | 4107.9 |
| 20260906153133 | 69 | 170 | 2.0 | 2.0 | 0.00 | 0.00 | 0.00 | 93 | 4107.9 |
| 20260906152632 | 70 | 170 | 2.0 | 2.0 | 0.00 | 0.00 | 0.00 | 92 | 4107.9 |
| 20260906152127 | 69 | 170 | 2.0 | 2.0 | 0.00 | 0.00 | 0.00 | 94 | 4107.9 |
| 20260906151621 | 68 | 170 | 1.0 | 1.0 | 0.00 | 0.00 | 0.00 | 95 | 4107.9 |
| 20260906151118 | 68 | 170 | 1.0 | 1.0 | 0.00 | 0.00 | 0.00 | 95 | 4107.6 |
| 20260906150613 | 67 | 170 | 0.0 | 1.0 | 0.00 | 0.00 | 0.00 | 96 | 4107.6 |
| 20260906150108 | 67 | 170 | 1.0 | 1.0 | 0.00 | 0.00 | 0.00 | 97 | 4107.6 |
| 20260906145607 | 67 | 170 | 1.0 | 2.0 | 0.00 | 0.00 | 0.00 | 96 | 4107.9 |
| 20260906145102 | 67 | 170 | 1.0 | 2.0 | 0.00 | 0.00 | 0.00 | 97 | 4107.9 |
| 20260906144556 | 66 | 170 | 2.0 | 2.0 | 0.00 | 0.00 | 0.00 | 98 | 4107.9 |
| 20260906144052 | 66 | 170 | 2.0 | 2.0 | 0.00 | 0.00 | 0.00 | 98 | 4107.6 |
| 20260906143546 | 66 | 170 | 2.0 | 2.0 | 0.00 | 0.00 | 0.00 | 98 | 4107.6 |
| 20260906143043 | 66 | 170 | 2.0 | 2.0 | 0.00 | 0.00 | 0.00 | 97 | 4107.6 |
| 20260906142542 | 66 | 170 | 3.0 | 3.0 | 0.00 | 0.00 | 0.00 | 99 | 4107.9 |
| 20260906142038 | 66 | 170 | 3.0 | 3.0 | 0.00 | 0.00 | 0.00 | 99 | 4107.6 |
| 20260906141537 | 66 | 170 | 3.0 | 3.0 | 0.00 | 0.00 | 0.00 | 99 | 4107.6 |
| 20260906141033 | 66 | 169 | 2.0 | 2.0 | 0.00 | 0.00 | 0.00 | 99 | 4107.6 |
| 20260906140532 | 65 | 168 | 3.0 | 3.0 | 0.00 | 0.00 | 0.00 | 99 | 4107.6 |
| 20260906140031 | 66 | 168 | 2.0 | 2.0 | 0.00 | 0.00 | 0.00 | 98 | 4107.6 |
| 20260906135528 | 66 | 167 | 1.0 | 2.0 | 0.00 | 0.00 | 0.00 | 99 | 4107.6 |
| 20260906135024 | 66 | 161 | 2.0 | 2.0 | 0.00 | 0.00 | 0.00 | 98 | 4107.6 |
| 20260906134520 | 66 | 157 | 1.0 | 1.0 | 0.00 | 0.00 | 0.00 | 97 | 4107.6 |
| 20260906134014 | 66 | 153 | 1.0 | 2.0 | 0.00 | 0.00 | 0.00 | 97 | 4107.6 |
| 20260906133510 | 66 | 147 | 0.0 | 1.0 | 0.00 | 0.00 | 0.00 | 98 | 4107.6 |
| 20260906133006 | 66 | 147 | 0.0 | 0.0 | 0.00 | 0.00 | 0.00 | 98 | 4107.6 |
| 20260906132501 | 65 | 147 | 0.0 | 0.0 | 0.00 | 0.00 | 0.00 | 99 | 4107.6 |
| 20260906131955 | 64 | 147 | 0.0 | 0.0 | 0.00 | 0.00 | 0.00 | 99 | 4107.6 |
| 20260906131451 | 63 | 149 | 0.0 | 1.0 | 0.00 | 0.00 | 0.00 | 99 | 4107.2 |
| 20260906130947 | 62 | 144 | 0.0 | 0.0 | 0.00 | 0.00 | 0.00 | 99 | 4107.2 |
| 20260906130446 | 62 | 144 | 0.0 | 0.0 | 0.00 | 0.00 | 0.00 | 99 | 4107.2 |
| 20260906125940 | 60 | 123 | 0.0 | 0.0 | 0.00 | 0.00 | 0.00 | 99 | 4106.9 |
| 20260906125437 | 60 | 121 | 0.0 | 0.0 | 0.00 | 0.00 | 0.00 | 99 | 4106.9 |
| 20260906124932 | 60 | 113 | 0.0 | 0.0 | 0.00 | 0.00 | 0.00 | 99 | 4107.2 |
| 20260906124428 | 59 | 110 | 0.0 | 0.0 | 0.00 | 0.00 | 0.00 | 99 | 4107.6 |
| 20260906123928 | 59 | 111 | 0.0 | 1.0 | 0.00 | 0.00 | 0.00 | 99 | 4106.9 |
| 20260906123427 | 58 | 111 | 0.0 | 0.0 | 0.00 | 0.00 | 0.00 | 99 | 4107.2 |
| 20260906122921 | 58 | 111 | 0.0 | 0.0 | 0.00 | 0.00 | 0.00 | 99 | 4107.2 |
| 20260906122416 | 57 | 111 | 0.0 | 0.0 | 0.00 | 0.00 | 0.00 | 99 | 4107.2 |
| 20260906121913 | 57 | 111 | 1.0 | 1.0 | 0.00 | 0.00 | 0.00 | 99 | 4107.2 |
| 20260906121409 | 57 | 111 | 0.0 | 0.0 | 0.00 | 0.00 | 0.00 | 99 | 4107.2 |
| 20260906120905 | 57 | 111 | 0.0 | 0.0 | 0.00 | 0.00 | 0.00 | 99 | 4106.9 |
| 20260906120400 | 57 | 111 | 0.0 | 0.0 | 0.00 | 0.00 | 0.00 | 99 | 4106.9 |
| 20260906115856 | 57 | 111 | 0.0 | 0.0 | 0.00 | 0.00 | 0.00 | 99 | 4106.9 |
| 20260906115352 | 56 | 111 | 0.0 | 0.0 | 0.00 | 0.00 | 0.00 | 99 | 4106.9 |
| 20260906114851 | 55 | 111 | 0.0 | 0.0 | 0.00 | 0.00 | 0.00 | 99 | 4106.9 |
| 20260906114346 | 55 | 112 | 0.0 | 0.0 | 0.00 | 0.00 | 0.00 | 99 | 4106.9 |
| 20260906113841 | 56 | 112 | 0.0 | 0.0 | 0.00 | 0.00 | 0.00 | 99 | 4106.9 |
| 20260906113340 | 56 | 112 | 0.0 | 0.0 | 0.00 | 0.00 | 0.00 | 99 | 4106.6 |
| 20260906112836 | 55 | 112 | 0.0 | 0.0 | 0.00 | 0.00 | 0.00 | 99 | 4106.6 |
| 20260906112332 | 55 | 112 | 0.0 | 0.0 | 0.00 | 0.00 | 0.00 | 99 | 4106.6 |
| 20260906111831 | 55 | 112 | 0.0 | 0.0 | 0.00 | 0.00 | 0.00 | 99 | 4106.6 |
| 20260906111326 | 56 | 111 | 0.0 | 0.0 | 0.00 | 0.00 | 0.00 | 99 | 4106.9 |
| 20260906110821 | 56 | 111 | 0.0 | 0.0 | 0.00 | 0.00 | 0.00 | 99 | 4106.6 |
| 20260906110317 | 56 | 111 | 0.0 | 0.0 | 0.00 | 0.00 | 0.00 | 99 | 4106.6 |
| 20260906105816 | 56 | 112 | 0.0 | 0.0 | 0.00 | 0.00 | 0.00 | 99 | 4106.6 |
| 20260906105311 | 56 | 112 | 0.0 | 0.0 | 0.00 | 0.00 | 0.00 | 99 | 4106.6 |
| 20260906104807 | 56 | 112 | 0.0 | 0.0 | 0.00 | 0.00 | 0.00 | 99 | 4106.6 |
| 20260906104305 | 57 | 111 | 0.0 | 0.0 | 0.00 | 0.00 | 0.00 | 99 | 4106.6 |
| 20260906103803 | 57 | 111 | 0.0 | 0.0 | 0.00 | 0.00 | 0.00 | 99 | 4106.9 |
| 20260906103257 | 57 | 111 | 0.0 | 0.0 | 0.00 | 0.00 | 0.00 | 99 | 4106.6 |
| 20260906102754 | 57 | 112 | 0.0 | 0.0 | 0.00 | 0.00 | 0.00 | 99 | 4106.6 |
| 20260906102252 | 57 | 112 | 0.0 | 0.0 | 0.00 | 0.00 | 0.00 | 99 | 4106.6 |
| 20260906101747 | 56 | 112 | 0.0 | 0.0 | 0.00 | 0.00 | 0.00 | 99 | 4106.6 |
| 20260906101242 | 56 | 112 | 0.0 | 0.0 | 0.00 | 0.00 | 0.00 | 99 | 4106.6 |
| 20260906100738 | 56 | 112 | 0.0 | 0.0 | 0.00 | 0.00 | 0.00 | 99 | 4106.2 |
| 20260906100237 | 56 | 111 | 0.0 | 0.0 | 0.00 | 0.00 | 0.00 | 99 | 4106.2 |
| 20260906095732 | 56 | 111 | 0.0 | 0.0 | 0.00 | 0.00 | 0.00 | 99 | 4106.2 |
| 20260906095222 | 57 | 111 | 0.0 | 0.0 | 0.00 | 0.00 | 0.00 | 99 | 4106.2 |
| 20260906094721 | 57 | 111 | 0.0 | 0.0 | 0.00 | 0.00 | 0.00 | 99 | 4106.2 |
| 20260906094216 | 57 | 111 | 0.0 | 0.0 | 0.00 | 0.00 | 0.00 | 99 | 4106.2 |
| 20260906093712 | 57 | 111 | 0.0 | 0.0 | 0.00 | 0.00 | 0.00 | 99 | 4106.2 |
| 20260906093207 | 57 | 111 | 0.0 | 0.0 | 0.00 | 0.00 | 0.00 | 99 | 4106.2 |
| 20260906092702 | 57 | 111 | 0.0 | 0.0 | 0.00 | 0.00 | 0.00 | 99 | 4106.2 |
| 20260906092156 | 57 | 111 | 0.0 | 0.0 | 0.00 | 0.00 | 0.00 | 99 | 4106.2 |
| 20260906091653 | 57 | 111 | 0.0 | 0.0 | 0.00 | 0.00 | 0.00 | 99 | 4105.9 |
| 20260906091149 | 56 | 111 | 0.0 | 0.0 | 0.00 | 0.00 | 0.00 | 99 | 4106.2 |
| 20260906090645 | 57 | 111 | 0.0 | 0.0 | 0.00 | 0.00 | 0.00 | 99 | 4106.2 |
| 20260906090144 | 57 | 111 | 0.0 | 0.0 | 0.00 | 0.00 | 0.00 | 99 | 4105.9 |
| 20260906085643 | 57 | 111 | 0.0 | 0.0 | 0.00 | 0.00 | 0.00 | 99 | 4105.6 |
| 20260906085143 | 57 | 111 | 0.0 | 0.0 | 0.00 | 0.00 | 0.00 | 99 | 4105.9 |
| 20260906084637 | 58 | 111 | 0.0 | 0.0 | 0.00 | 0.00 | 0.00 | 99 | 4105.9 |
| 20260906084136 | 58 | 111 | 0.0 | 0.0 | 0.00 | 0.00 | 0.00 | 99 | 4105.6 |
| 20260906083632 | 58 | 111 | 0.0 | 1.0 | 0.00 | 0.00 | 0.00 | 99 | 4105.6 |
| 20260906083127 | 58 | 110 | 0.0 | 0.0 | 0.00 | 0.00 | 0.00 | 99 | 4105.6 |
| 20260906082623 | 58 | 110 | 0.0 | 0.0 | 0.00 | 0.00 | 0.00 | 99 | 4105.6 |
| 20260906082118 | 58 | 109 | 0.0 | 0.0 | 0.00 | 0.00 | 0.00 | 99 | 4105.6 |
| 20260906081614 | 58 | 109 | 1.0 | 1.0 | 0.00 | 0.00 | 0.00 | 99 | 4105.6 |
| 20260906081109 | 58 | 109 | 1.0 | 1.0 | 0.00 | 0.00 | 0.00 | 99 | 4105.6 |
| 20260906080605 | 58 | 112 | 1.0 | 1.0 | 0.00 | 0.00 | 0.00 | 99 | 4105.6 |
| 20260906075555 | 58 | 111 | 1.0 | 1.0 | 0.00 | 0.00 | 0.00 | 99 | 4105.2 |
| 20260906075050 | 58 | 114 | 1.0 | 2.0 | 0.00 | 0.00 | 0.00 | 99 | 4105.6 |
| 20260906074545 | 58 | 116 | 0.0 | 0.0 | 0.00 | 0.00 | 0.00 | 99 | 4105.2 |
| 20260906074043 | 57 | 125 | 1.0 | 1.0 | 0.00 | 0.00 | 0.00 | 99 | 4105.2 |
| 20260906073538 | 57 | 130 | 0.0 | 1.0 | 0.00 | 0.00 | 0.00 | 99 | 4105.2 |
| 20260906073035 | 57 | 136 | 0.0 | 0.0 | 0.00 | 0.00 | 0.00 | 99 | 4105.2 |
| 20260906072529 | 56 | 142 | 0.0 | 0.0 | 0.00 | 0.00 | 0.00 | 99 | 4105.2 |
| 20260906072026 | 57 | 142 | 0.0 | 0.0 | 0.00 | 0.00 | 0.00 | 99 | 4105.2 |
| 20260906071521 | 57 | 142 | 0.0 | 0.0 | 0.00 | 0.00 | 0.00 | 99 | 4105.2 |
| 20260906071016 | 57 | 142 | 0.0 | 0.0 | 0.00 | 0.00 | 0.00 | 99 | 4105.2 |
| 20260906070513 | 58 | 141 | 0.0 | 0.0 | 0.00 | 0.00 | 0.00 | 99 | 4105.6 |
| 20260906070008 | 57 | 142 | 0.0 | 0.0 | 0.00 | 0.00 | 0.00 | 99 | 4105.6 |
| 20260906065508 | 57 | 142 | 0.0 | 0.0 | 0.00 | 0.00 | 0.00 | 99 | 4105.2 |
| 20260906065003 | 57 | 141 | 0.0 | 0.0 | 0.00 | 0.00 | 0.00 | 99 | 4105.6 |
| 20260906064459 | 57 | 141 | 0.0 | 0.0 | 0.00 | 0.00 | 0.00 | 99 | 4105.6 |
| 20260906063954 | 56 | 142 | 0.0 | 0.0 | 0.00 | 0.00 | 0.00 | 99 | 4105.6 |
| 20260906063450 | 56 | 142 | 0.0 | 0.0 | 0.00 | 0.00 | 0.00 | 99 | 4105.2 |
| 20260906062949 | 56 | 142 | 0.0 | 0.0 | 0.00 | 0.00 | 0.00 | 99 | 4105.6 |
| 20260906062445 | 57 | 141 | 0.0 | 0.0 | 0.00 | 0.00 | 0.00 | 99 | 4105.6 |
| 20260906061939 | 57 | 141 | 0.0 | 0.0 | 0.00 | 0.00 | 0.00 | 99 | 4105.6 |
| 20260906061430 | 57 | 141 | 0.0 | 0.0 | 0.00 | 0.00 | 0.00 | 99 | 4105.2 |
| 20260906060929 | 57 | 141 | 0.0 | 0.0 | 0.00 | 0.00 | 0.00 | 99 | 4105.6 |
| 20260906060427 | 57 | 141 | 0.0 | 0.0 | 0.00 | 0.00 | 0.00 | 99 | 4105.6 |
| 20260906055923 | 57 | 141 | 0.0 | 0.0 | 0.00 | 0.00 | 0.00 | 99 | 4105.6 |
| 20260906055419 | 57 | 141 | 0.0 | 0.0 | 0.00 | 0.00 | 0.00 | 99 | 4105.2 |
| 20260906054914 | 58 | 141 | 0.0 | 0.0 | 0.00 | 0.00 | 0.00 | 99 | 4105.6 |
| 20260906054409 | 58 | 141 | 0.0 | 0.0 | 0.00 | 0.00 | 0.00 | 99 | 4105.2 |
| 20260906053905 | 58 | 141 | 0.0 | 0.0 | 0.00 | 0.00 | 0.00 | 99 | 4105.2 |
| 20260906053401 | 58 | 140 | 0.0 | 0.0 | 0.00 | 0.00 | 0.00 | 99 | 4105.2 |
| 20260906052856 | 58 | 140 | 0.0 | 0.0 | 0.00 | 0.00 | 0.00 | 99 | 4105.2 |
| 20260906052352 | 58 | 140 | 0.0 | 0.0 | 0.00 | 0.00 | 0.00 | 99 | 4105.2 |
| 20260906051849 | 59 | 140 | 0.0 | 0.0 | 0.00 | 0.00 | 0.00 | 99 | 4105.2 |
| 20260906051348 | 59 | 141 | 0.0 | 0.0 | 0.00 | 0.00 | 0.00 | 99 | 4105.2 |
| 20260906050845 | 59 | 140 | 0.0 | 0.0 | 0.00 | 0.00 | 0.00 | 99 | 4105.2 |
| 20260906050339 | 59 | 140 | 0.0 | 0.0 | 0.00 | 0.00 | 0.00 | 99 | 4105.2 |
| 20260906045838 | 59 | 141 | 0.0 | 0.0 | 0.00 | 0.00 | 0.00 | 99 | 4105.2 |
| 20260906045332 | 59 | 141 | 0.0 | 0.0 | 0.00 | 0.00 | 0.00 | 99 | 4105.2 |
| 20260906044829 | 59 | 142 | 0.0 | 0.0 | 0.00 | 0.00 | 0.00 | 99 | 4105.2 |
| 20260906044329 | 59 | 142 | 0.0 | 0.0 | 0.00 | 0.00 | 0.00 | 99 | 4105.6 |
| 20260906043826 | 59 | 142 | 0.0 | 0.0 | 0.00 | 0.00 | 0.00 | 99 | 4105.2 |
| 20260906043321 | 59 | 142 | 0.0 | 0.0 | 0.00 | 0.00 | 0.00 | 99 | 4105.2 |
| 20260906042820 | 59 | 142 | 0.0 | 0.0 | 0.00 | 0.00 | 0.00 | 99 | 4104.9 |
| 20260906042319 | 59 | 142 | 0.0 | 0.0 | 0.00 | 0.00 | 0.00 | 99 | 4104.9 |
| 20260906041815 | 59 | 142 | 0.0 | 0.0 | 0.00 | 0.00 | 0.00 | 99 | 4104.9 |
| 20260906041310 | 59 | 142 | 0.0 | 0.0 | 0.00 | 0.00 | 0.00 | 99 | 4104.9 |
| 20260906040805 | 59 | 142 | 0.0 | 0.0 | 0.00 | 0.00 | 0.00 | 99 | 4104.9 |
| 20260906040301 | 59 | 142 | 0.0 | 0.0 | 0.00 | 0.00 | 0.00 | 99 | 4104.9 |
| 20260906035756 | 59 | 142 | 0.0 | 0.0 | 0.00 | 0.00 | 0.00 | 99 | 4104.9 |
| 20260906035251 | 59 | 142 | 0.0 | 0.0 | 0.00 | 0.00 | 0.00 | 99 | 4104.9 |
| 20260906034746 | 60 | 142 | 0.0 | 0.0 | 0.00 | 0.00 | 0.00 | 99 | 4104.9 |
| 20260906034241 | 60 | 142 | 0.0 | 0.0 | 0.00 | 0.00 | 0.00 | 99 | 4104.9 |
| 20260906033737 | 60 | 142 | 0.0 | 0.0 | 0.00 | 0.00 | 0.00 | 99 | 4104.9 |
| 20260906033236 | 60 | 142 | 0.0 | 0.0 | 0.00 | 0.00 | 0.00 | 99 | 4104.9 |
| 20260906032733 | 60 | 142 | 0.0 | 0.0 | 0.00 | 0.00 | 0.00 | 99 | 4104.9 |
| 20260906032232 | 60 | 142 | 0.0 | 0.0 | 0.00 | 0.00 | 0.00 | 99 | 4104.9 |
| 20260906031728 | 60 | 141 | 0.0 | 0.0 | 0.00 | 0.00 | 0.00 | 99 | 4104.9 |
| 20260906031224 | 60 | 141 | 0.0 | 0.0 | 0.00 | 0.00 | 0.00 | 99 | 4104.4 |
| 20260906030723 | 60 | 141 | 0.0 | 0.0 | 0.00 | 0.00 | 0.00 | 99 | 4104.4 |
| 20260906030218 | 60 | 141 | 0.0 | 0.0 | 0.00 | 0.00 | 0.00 | 99 | 4104.4 |
| 20260906025717 | 60 | 141 | 0.0 | 0.0 | 0.00 | 0.00 | 0.00 | 99 | 4104.9 |
| 20260906025212 | 60 | 141 | 0.0 | 0.0 | 0.00 | 0.00 | 0.00 | 99 | 4104.9 |
| 20260906024711 | 60 | 141 | 0.0 | 0.0 | 0.00 | 0.00 | 0.00 | 99 | 4104.4 |
| 20260906024210 | 61 | 141 | 0.0 | 0.0 | 0.00 | 0.00 | 0.00 | 99 | 4104.4 |
| 20260906023706 | 61 | 141 | 0.0 | 0.0 | 0.00 | 0.00 | 0.00 | 99 | 4104.4 |
| 20260906023201 | 61 | 141 | 0.0 | 0.0 | 0.00 | 0.00 | 0.00 | 99 | 4104.4 |
| 20260906022656 | 61 | 141 | 0.0 | 0.0 | 0.00 | 0.00 | 0.00 | 99 | 4104.1 |
| 20260906022152 | 61 | 141 | 0.0 | 0.0 | 0.00 | 0.00 | 0.00 | 98 | 4104.4 |
| 20260906021648 | 60 | 141 | 0.0 | 0.0 | 0.00 | 0.00 | 0.00 | 98 | 4104.4 |
| 20260906021146 | 60 | 141 | 0.0 | 0.0 | 0.00 | 0.00 | 0.00 | 97 | 4104.1 |
| 20260906020641 | 60 | 141 | 0.0 | 0.0 | 0.00 | 0.00 | 0.00 | 96 | 4104.4 |
| 20260906020136 | 60 | 141 | 0.0 | 0.0 | 0.00 | 0.00 | 0.00 | 96 | 4104.4 |
| 20260906015630 | 60 | 141 | 0.0 | 0.0 | 0.00 | 0.00 | 0.00 | 95 | 4104.4 |
| 20260906015129 | 60 | 141 | 0.0 | 0.0 | 0.00 | 0.00 | 0.00 | 95 | 4104.4 |
| 20260906014623 | 60 | 141 | 0.0 | 0.0 | 0.00 | 0.00 | 0.00 | 95 | 4104.4 |
| 20260906014119 | 60 | 141 | 0.0 | 0.0 | 0.00 | 0.00 | 0.00 | 94 | 4104.4 |
| 20260906013614 | 60 | 141 | 0.0 | 0.0 | 0.00 | 0.00 | 0.00 | 94 | 4104.4 |
| 20260906013110 | 61 | 141 | 0.0 | 0.0 | 0.00 | 0.00 | 0.00 | 93 | 4104.4 |
| 20260906012604 | 61 | 141 | 0.0 | 0.0 | 0.00 | 0.00 | 0.00 | 93 | 4104.4 |
| 20260906012059 | 61 | 141 | 0.0 | 0.0 | 0.00 | 0.00 | 0.00 | 92 | 4104.1 |
| 20260906011555 | 61 | 141 | 0.0 | 0.0 | 0.00 | 0.00 | 0.00 | 92 | 4104.4 |
| 20260906011055 | 61 | 141 | 0.0 | 0.0 | 0.00 | 0.00 | 0.00 | 92 | 4104.4 |
| 20260906010550 | 62 | 141 | 0.0 | 0.0 | 0.00 | 0.00 | 0.00 | 91 | 4104.1 |
| 20260906010047 | 62 | 141 | 0.0 | 0.0 | 0.00 | 0.00 | 0.00 | 90 | 4104.4 |
| 20260906005546 | 62 | 141 | 0.0 | 0.0 | 0.00 | 0.00 | 0.00 | 89 | 4104.1 |
| 20260906005045 | 62 | 141 | 0.0 | 0.0 | 0.00 | 0.00 | 0.00 | 89 | 4104.1 |
| 20260906004544 | 63 | 141 | 0.0 | 0.0 | 0.00 | 0.00 | 0.00 | 89 | 4104.4 |
| 20260906004039 | 63 | 141 | 0.0 | 0.0 | 0.00 | 0.00 | 0.00 | 89 | 4104.1 |
| 20260906003534 | 63 | 141 | 0.0 | 0.0 | 0.00 | 0.00 | 0.00 | 90 | 4104.1 |
| 20260906003031 | 64 | 141 | 0.0 | 0.0 | 0.00 | 0.00 | 0.00 | 89 | 4103.8 |
| 20260906002525 | 64 | 141 | 0.0 | 0.0 | 0.00 | 0.00 | 0.00 | 89 | 4103.8 |
| 20260906002020 | 64 | 141 | 0.0 | 0.0 | 0.00 | 0.00 | 0.00 | 89 | 4104.1 |
| 20260906001515 | 65 | 141 | 0.0 | 0.0 | 0.00 | 0.00 | 0.00 | 89 | 4103.8 |
| 20260906001004 | 65 | 142 | 0.0 | 0.0 | 0.00 | 0.00 | 0.00 | 87 | 4103.8 |
| 20260906000500 | 66 | 142 | 0.0 | 0.0 | 0.00 | 0.00 | 0.00 | 87 | 4103.8 |
| 20260905235959 | 66 | 142 | 0.0 | 0.0 | 0.00 | 0.00 | 0.00 | 86 | 4103.8 |
| 20260905235454 | 67 | 142 | 0.0 | 0.0 | 0.00 | 0.00 | 0.00 | 85 | 4103.8 |
| 20260905234949 | 67 | 142 | 0.0 | 0.0 | 0.00 | 0.00 | 0.00 | 83 | 4103.8 |
| 20260905234444 | 68 | 142 | 0.0 | 0.0 | 0.00 | 0.00 | 0.00 | 82 | 4103.8 |
| 20260905233938 | 68 | 142 | 0.0 | 0.0 | 0.00 | 0.00 | 0.00 | 81 | 4103.8 |
| 20260905233434 | 69 | 142 | 0.0 | 0.0 | 0.00 | 0.00 | 0.00 | 81 | 4103.8 |
| 20260905232933 | 69 | 142 | 0.0 | 0.0 | 0.00 | 0.00 | 0.00 | 80 | 4103.8 |
| 20260905232429 | 70 | 142 | 0.0 | 0.0 | 0.00 | 0.00 | 0.00 | 80 | 4104.1 |
| 20260905231925 | 70 | 142 | 0.0 | 0.0 | 0.00 | 0.00 | 0.00 | 79 | 4104.1 |
| 20260905231421 | 71 | 142 | 0.0 | 0.0 | 0.00 | 0.00 | 0.00 | 78 | 4103.8 |
| 20260905230917 | 72 | 143 | 0.0 | 0.0 | 0.00 | 0.00 | 0.00 | 75 | 4103.8 |
| 20260905230414 | 72 | 143 | 0.0 | 0.0 | 0.00 | 0.00 | 0.00 | 74 | 4103.8 |
| 20260905225908 | 73 | 143 | 0.0 | 0.0 | 0.00 | 0.00 | 0.00 | 74 | 4103.8 |
| 20260905225403 | 73 | 144 | 0.0 | 1.0 | 0.00 | 0.00 | 0.00 | 73 | 4104.1 |
| 20260905224858 | 73 | 143 | 0.0 | 0.0 | 0.00 | 0.00 | 0.00 | 75 | 4103.8 |
| 20260905224353 | 73 | 143 | 0.0 | 0.0 | 0.00 | 0.00 | 0.00 | 74 | 4104.1 |
| 20260905223847 | 74 | 145 | 0.0 | 0.0 | 0.00 | 0.00 | 0.00 | 71 | 4104.1 |
| 20260905223346 | 74 | 144 | 0.0 | 0.0 | 0.00 | 0.00 | 0.00 | 73 | 4103.8 |
| 20260905222840 | 74 | 152 | 0.0 | 1.0 | 0.00 | 0.00 | 0.00 | 70 | 4103.8 |
| 20260905222339 | 74 | 167 | 1.0 | 1.0 | 0.00 | 0.00 | 0.00 | 74 | 4103.8 |
| 20260905221835 | 74 | 152 | 1.0 | 1.0 | 0.00 | 0.00 | 0.00 | 71 | 4103.8 |
| 20260905221332 | 73 | 156 | 1.0 | 1.0 | 0.00 | 0.00 | 0.00 | 70 | 4103.8 |
| 20260905220827 | 74 | 157 | 0.0 | 1.0 | 0.00 | 0.00 | 0.00 | 72 | 4103.8 |
| 20260905220323 | 73 | 160 | 1.0 | 2.0 | 0.00 | 0.00 | 0.00 | 71 | 4103.8 |
| 20260905215822 | 74 | 159 | 0.0 | 0.0 | 0.00 | 0.00 | 0.00 | 73 | 4104.1 |
| 20260905215318 | 73 | 167 | 0.0 | 1.0 | 0.00 | 0.00 | 0.00 | 71 | 4103.8 |
| 20260905214815 | 72 | 173 | 2.0 | 2.0 | 0.00 | 0.00 | 0.00 | 82 | 4103.8 |
| 20260905214310 | 72 | 173 | 3.0 | 5.0 | 0.00 | 0.00 | 0.00 | 80 | 4103.4 |
| 20260905213804 | 72 | 173 | 4.0 | 5.0 | 0.00 | 0.00 | 0.00 | 82 | 4103.8 |
| 20260905213301 | 72 | 174 | 3.0 | 5.0 | 0.00 | 0.00 | 0.00 | 80 | 4103.8 |
| 20260905212755 | 71 | 177 | 5.0 | 6.0 | 0.00 | 0.00 | 0.00 | 80 | 4103.4 |
| 20260905212254 | 71 | 170 | 5.0 | 7.0 | 0.00 | 0.00 | 0.00 | 83 | 4103.4 |
| 20260905211749 | 71 | 174 | 5.0 | 6.0 | 0.00 | 0.00 | 0.00 | 79 | 4103.4 |
| 20260905211244 | 71 | 163 | 3.0 | 5.0 | 0.00 | 0.00 | 0.00 | 80 | 4103.4 |
| 20260905210742 | 71 | 168 | 5.0 | 6.0 | 0.00 | 0.00 | 0.00 | 78 | 4103.4 |
| 20260905210241 | 71 | 167 | 3.0 | 3.0 | 0.00 | 0.00 | 0.00 | 80 | 4103.4 |
| 20260905205739 | 70 | 166 | 3.0 | 3.0 | 0.00 | 0.00 | 0.00 | 82 | 4103.4 |
| 20260905205235 | 70 | 165 | 5.0 | 6.0 | 0.00 | 0.00 | 0.00 | 83 | 4103.4 |
| 20260905204734 | 70 | 166 | 3.0 | 3.0 | 0.00 | 0.00 | 0.00 | 82 | 4103.8 |
| 20260905204230 | 70 | 164 | 4.0 | 6.0 | 0.00 | 0.00 | 0.00 | 84 | 4103.4 |
| 20260905203729 | 70 | 166 | 4.0 | 5.0 | 0.00 | 0.00 | 0.00 | 85 | 4103.8 |